Zurück zum Katalog

FENGYUN 1C DEB

AktivSSO
NORAD 32089·DEBRIS·🇨🇳 China

Gestartet May 10, 1999 von Taiyuan Satellite Launch Center

Loading…

Nächste Überflüge (nächste 24 Stunden)

TLE

AktuellSource: Space-Track

Epoche: Sep 13, 2026, 06:07 UTC

1 32089U 99025CQF 26256.25516251  .00000761  00000-0  39283-3 0  9997
2 32089  98.6582 258.4596 0112393  59.4169 301.8036 14.14657744670966

Verfolge FENGYUN 1C DEB in Echtzeit mit AllMySat

Download on the App Store